Notices

What's New in latest Release from April 7th, 2021:

- Updated Glossary, including Speed of Maximum Gust, and Total Hourly Precipitation

- Updated national and regional climate services offices contacts and prices information

- Addition of station inventory lists for 1981-2010, 1971-2000, and 1961-1990 Normals.

If you haven't already, please take our survey and provide feedback about our website: https://eccc.sondage-survey.ca/f/LanguageSelection.aspx?s=442ca660-fcf1-47c0-95a9-59707d6fd709

Hourly Data Report for April 16, 2021

CARBERRY CS
MANITOBA
Current Station Operator: ECCC - MSC

49°54'20.900" N
99°21'26.800" W
383.50 m
5010547
71170
WZE

Download Data

Hourly Data (April 2021)
Hourly Data Report for April 16, 2021
TIME
LST
Temp Definition
°C
Dew Point Definition
°C
Rel Hum Definition
%
Precip. Amount Definition
mm

Wind Dir Definition
10's deg

Wind Spd Definition
km/h
Visibility Definition
km
Stn Press Definition
kPa
Hmdx Definition


Wind Chill Definition


Weather Definition


00:00 0.6 -2.5 79 0.0 35 2   97.87     LegendNANA
01:00 0.3 -2.3 83 0.0 36 5   97.86     LegendNANA
02:00 0.3 -1.8 85 0.0 35 4   97.86     LegendNANA
03:00 0.2 -1.5 88 0.0 35 6   97.86     LegendNANA
04:00 0.1 -1.0 92 0.0 36 7   97.87     LegendNANA
05:00 0.0 -0.8 94 0.0 36 2   97.86   -1 LegendNANA
06:00 -0.1 -0.5 97 0.0   0   97.89     LegendNANA
07:00 0.4 -0.4 94 0.0 35 3   97.91     LegendNANA
08:00 0.8 -1.0 88 0.0 36 11   97.91     LegendNANA
09:00 1.5 -0.1 89 0.0 4 7   97.90     LegendNANA
10:00 2.3 -1.7 75 0.0 2 8   97.90     LegendNANA
11:00 4.1 -1.6 66 0.0 2 9   97.87     LegendNANA
12:00 5.1 -3.1 55 0.0 3 11   97.84     LegendNANA
13:00 6.6 -3.7 48 0.0 4 12   97.82     LegendNANA
14:00 7.2 -5.8 39 0.0 4 13   97.80     LegendNANA
15:00 7.8 -5.6 38 0.0 3 9   97.78     LegendNANA
16:00 8.3 -6.8 34 0.0 35 10   97.73     LegendNANA
17:00 8.8 -8.6 28 0.0 1 10   97.72     LegendNANA
18:00 8.4 -8.3 30 0.0 2 11   97.71     LegendNANA
19:00 7.2 -7.1 35 0.0 4 7   97.67     LegendNANA
20:00 3.8 -5.3 51 0.0 5 3   97.68     LegendNANA
21:00 1.2 -4.9 64 0.0 30 3   97.69     LegendNANA
22:00 -1.2 -5.2 74 0.0 26 7   97.68   -4 LegendNANA
23:00 -1.5 -5.2 76 0.0 27 7   97.66   -4 LegendNANA

Notes on Data Quality.

Legend

  • E = Estimated
  • M = Missing
  • NA = Not Available*
  • [empty] = Indicates an unobserved value
Date modified: